Location: Coll
(42.4728°N, 0.7714°E)
Time: 06:42:13
(UTC+00:00)

ATLAS 3B R/B - Pass Details

Date: 23 October 2020
Orbit: 1014 x 1181 km, 63.8° (Epoch: 23 November)

Event Time Altitude Azimuth Distance (km) Brightness Sun altitude
Rises 04:43:51 0° 192° (SSW) 3,742 5.4 -18.3°
Reaches altitude 10° 04:46:33 10° 186° (S) 2,788 4.8 -17.8°
Maximum altitude 04:52:42 45° 116° (ESE) 1,353 3.7 -16.7°
Drops below altitude 10° 04:58:55 10° 46° (NE) 2,825 5.6 -15.5°
Sets 05:01:39 0° 40° (NE) 3,797 6.2 -15.0°
